GFSNW_prec_precacc24_204.txt.gz
Total_Precipitation_Accumulation
0.01 0.01 0.03 0.04 0.06 0.08 0.04 0.01 0.00 0.00 0.00 0.00 0.00 0.00 0.00 0.00 0.00 0.00 0.00 0.00 0.00 0.00 0.00 0.00 0.00 0.00 0.00 0.00 0.00 0.00 0.00 0.00 0.00 0.00 0.00 0.00 0.00 0.01 0.04 0.17 0.16 0.24 0.20 0.05
0.01 0.01 0.03 0.05 0.07 0.06 0.04 0.02 0.00 0.00 0.00 0.00 0.00 0.00 0.00 0.00 0.00 0.00 0.00 0.00 0.00 0.00 0.00 0.00 0.00 0.00 0.00 0.00 0.00 0.00 0.00 0.00 0.00 0.00 0.00 0.00 0.00 0.00 0.00 0.03 0.08 0.06 0.11 0.02
0.01 0.01 0.02 0.05 0.08 0.08 0.08 0.03 0.00 0.00 0.00 0.00 0.00 0.00 0.00 0.00 0.00 0.00 0.00 0.00 0.00 0.00 0.00 0.00 0.00 0.00 0.00 0.00 0.00 0.00 0.00 0.00 0.00 0.00 0.00 0.00 0.00 0.00 0.00 0.00 0.03 0.03 0.02 0.00
0.01 0.01 0.02 0.04 0.09 0.13 0.17 0.08 0.01 0.00 0.01 0.00 0.00 0.00 0.00 0.00 0.00 0.00 0.00 0.00 0.00 0.00 0.00 0.00 0.00 0.00 0.00 0.00 0.00 0.00 0.00 0.00 0.00 0.00 0.00 0.00 0.00 0.00 0.00 0.00 0.00 0.01 0.01 0.00
0.01 0.01 0.02 0.02 0.07 0.16 0.21 0.12 0.05 0.02 0.00 0.00 0.00 0.00 0.00 0.00 0.00 0.00 0.00 0.00 0.00 0.00 0.00 0.00 0.00 0.00 0.00 0.00 0.00 0.00 0.00 0.00 0.00 0.00 0.00 0.00 0.00 0.00 0.00 0.00 0.00 0.00 0.00 0.00
0.01 0.02 0.02 0.02 0.08 0.19 0.15 0.10 0.06 0.11 0.05 0.01 0.02 0.01 0.00 0.01 0.00 0.00 0.00 0.00 0.00 0.00 0.00 0.00 0.00 0.00 0.00 0.00 0.00 0.00 0.00 0.00 0.00 0.00 0.00 0.00 0.00 0.00 0.00 0.00 0.00 0.00 0.00 0.00
0.01 0.02 0.02 0.01 0.05 0.15 0.13 0.13 0.09 0.08 0.06 0.02 0.01 0.01 0.00 0.00 0.00 0.03 0.00 0.00 0.00 0.00 0.00 0.00 0.00 0.00 0.00 0.00 0.00 0.00 0.00 0.00 0.00 0.00 0.00 0.00 0.00 0.00 0.00 0.00 0.00 0.00 0.00 0.00
0.04 0.03 0.02 0.02 0.03 0.13 0.13 0.14 0.19 0.16 0.11 0.03 0.01 0.01 0.01 0.00 0.00 0.00 0.00 0.00 0.00 0.00 0.00 0.00 0.00 0.00 0.00 0.00 0.00 0.00 0.00 0.00 0.00 0.00 0.00 0.00 0.00 0.00 0.00 0.00 0.00 0.00 0.00 0.00
0.06 0.04 0.03 0.03 0.04 0.12 0.16 0.13 0.16 0.21 0.21 0.05 0.01 0.01 0.01 0.01 0.01 0.00 0.00 0.00 0.00 0.00 0.00 0.00 0.00 0.00 0.00 0.00 0.00 0.00 0.00 0.00 0.00 0.00 0.00 0.00 0.00 0.00 0.00 0.00 0.00 0.00 0.00 0.00
0.07 0.05 0.04 0.03 0.06 0.11 0.14 0.16 0.13 0.25 0.30 0.07 0.01 0.02 0.02 0.02 0.02 0.02 0.01 0.00 0.00 0.00 0.01 0.01 0.00 0.00 0.00 0.00 0.00 0.00 0.00 0.00 0.00 0.00 0.00 0.00 0.00 0.00 0.00 0.00 0.00 0.00 0.00 0.00
0.05 0.04 0.03 0.04 0.04 0.08 0.14 0.13 0.10 0.23 0.29 0.09 0.01 0.01 0.01 0.00 0.01 0.03 0.02 0.00 0.00 0.00 0.03 0.03 0.01 0.01 0.00 0.00 0.00 0.00 0.00 0.00 0.00 0.00 0.00 0.00 0.00 0.00 0.00 0.00 0.00 0.00 0.00 0.00
0.02 0.02 0.02 0.02 0.02 0.03 0.10 0.18 0.08 0.13 0.31 0.19 0.03 0.01 0.00 0.00 0.00 0.00 0.01 0.02 0.01 0.03 0.09 0.10 0.06 0.05 0.03 0.02 0.01 0.00 0.00 0.00 0.00 0.00 0.00 0.00 0.00 0.00 0.00 0.00 0.00 0.00 0.00 0.00
0.02 0.02 0.03 0.05 0.05 0.05 0.08 0.12 0.12 0.20 0.29 0.23 0.07 0.03 0.00 0.00 0.00 0.00 0.03 0.02 0.00 0.00 0.01 0.03 0.07 0.07 0.04 0.03 0.02 0.00 0.00 0.00 0.00 0.00 0.00 0.00 0.00 0.00 0.00 0.00 0.00 0.00 0.00 0.00
0.01 0.02 0.03 0.03 0.04 0.06 0.11 0.15 0.13 0.29 0.40 0.42 0.11 0.00 0.00 0.00 0.00 0.00 0.00 0.00 0.00 0.00 0.00 0.05 0.08 0.08 0.03 0.02 0.01 0.01 0.00 0.00 0.00 0.00 0.00 0.00 0.00 0.00 0.00 0.00 0.00 0.00 0.00 0.00
0.02 0.02 0.04 0.05 0.05 0.07 0.13 0.20 0.16 0.18 0.44 0.49 0.11 0.02 0.01 0.00 0.00 0.00 0.00 0.00 0.00 0.01 0.02 0.09 0.12 0.06 0.06 0.03 0.02 0.01 0.00 0.00 0.00 0.00 0.00 0.00 0.00 0.00 0.00 0.00 0.00 0.00 0.00 0.00
0.03 0.03 0.06 0.12 0.11 0.18 0.41 0.84 0.47 0.20 0.25 0.66 0.57 0.12 0.01 0.01 0.00 0.00 0.00 0.00 0.01 0.03 0.07 0.08 0.05 0.03 0.08 0.09 0.01 0.00 0.00 0.00 0.00 0.00 0.00 0.00 0.00 0.00 0.00 0.00 0.00 0.00 0.00 0.00
0.13 0.13 0.11 0.21 0.30 0.34 0.62 0.60 0.32 0.24 0.42 1.11 1.24 0.51 0.08 0.01 0.01 0.01 0.00 0.00 0.04 0.12 0.17 0.15 0.06 0.05 0.11 0.12 0.05 0.00 0.00 0.00 0.00 0.00 0.00 0.00 0.00 0.00 0.00 0.00 0.00 0.00 0.00 0.00
0.16 0.23 0.19 0.24 0.45 0.71 0.70 0.30 0.15 0.25 0.95 1.63 1.49 0.72 0.25 0.10 0.16 0.13 0.02 0.04 0.12 0.27 0.17 0.08 0.08 0.12 0.22 0.28 0.01 0.00 0.00 0.00 0.00 0.00 0.00 0.00 0.00 0.00 0.00 0.00 0.00 0.00 0.00 0.00
0.39 0.47 0.55 0.71 0.52 0.58 0.57 0.47 0.49 0.67 1.43 1.83 0.91 0.42 0.29 0.23 0.28 0.23 0.25 0.14 0.41 0.37 0.22 0.05 0.08 0.15 0.31 0.07 0.00 0.00 0.00 0.00 0.00 0.00 0.00 0.00 0.00 0.00 0.00 0.00 0.00 0.00 0.00 0.00
0.71 0.95 0.82 0.89 0.72 0.57 0.88 1.28 1.79 2.64 2.50 1.46 0.59 0.27 0.31 0.28 0.37 0.42 0.54 0.79 0.49 0.46 0.27 0.16 0.28 0.09 0.01 0.00 0.00 0.00 0.00 0.00 0.00 0.00 0.00 0.00 0.00 0.00 0.00 0.00 0.00 0.00 0.00 0.00
0.66 0.91 0.81 0.82 0.87 0.71 1.03 1.18 1.39 1.54 1.33 0.70 0.35 0.20 0.32 0.32 0.38 0.44 0.56 0.90 0.84 0.50 0.16 0.13 0.22 0.10 0.00 0.00 0.00 0.00 0.00 0.00 0.00 0.00 0.00 0.00 0.00 0.00 0.00 0.00 0.00 0.00 0.00 0.00
0.76 0.77 0.73 0.91 0.96 1.08 0.92 0.75 0.61 0.62 0.53 0.55 0.40 0.26 0.20 0.42 0.60 0.72 0.78 0.72 0.65 0.53 0.17 0.25 0.11 0.01 0.00 0.00 0.00 0.00 0.00 0.00 0.00 0.00 0.00 0.00 0.00 0.00 0.00 0.00 0.00 0.00 0.00 0.00
0.64 0.83 0.96 0.93 0.77 0.80 0.66 0.45 0.44 0.43 0.39 0.39 0.25 0.27 0.50 0.69 0.84 1.05 0.78 0.79 0.52 0.30 0.32 0.18 0.04 0.02 0.00 0.00 0.00 0.00 0.00 0.00 0.00 0.00 0.00 0.00 0.00 0.00 0.00 0.00 0.00 0.00 0.00 0.00
0.54 0.60 0.52 0.46 0.41 0.27 0.21 0.17 0.13 0.16 0.28 0.35 0.34 0.33 0.56 0.75 0.87 0.71 0.79 0.55 0.41 0.37 0.25 0.13 0.10 0.09 0.05 0.03 0.02 0.03 0.04 0.03 0.02 0.01 0.02 0.01 0.02 0.01 0.00 0.01 0.00 0.00 0.00 0.00
0.38 0.35 0.37 0.23 0.19 0.14 0.17 0.20 0.21 0.26 0.51 0.77 0.80 0.66 0.65 0.75 0.80 0.47 0.38 0.42 0.40 0.34 0.22 0.21 0.25 0.29 0.27 0.26 0.22 0.16 0.16 0.18 0.19 0.14 0.17 0.09 0.08 0.07 0.05 0.04 0.03 0.01 0.00 0.00
0.22 0.22 0.23 0.16 0.13 0.17 0.17 0.26 0.35 0.38 0.49 0.64 0.78 0.71 0.65 0.59 0.50 0.44 0.34 0.27 0.23 0.28 0.39 0.48 0.47 0.43 0.42 0.45 0.40 0.36 0.36 0.39 0.42 0.33 0.34 0.27 0.28 0.26 0.21 0.16 0.18 0.14 0.08 0.05
0.17 0.24 0.23 0.21 0.18 0.20 0.25 0.32 0.38 0.47 0.53 0.53 0.56 0.48 0.39 0.40 0.32 0.26 0.25 0.31 0.39 0.44 0.41 0.37 0.39 0.35 0.39 0.40 0.36 0.36 0.39 0.39 0.42 0.44 0.45 0.44 0.43 0.39 0.36 0.30 0.38 0.38 0.36 0.27

GFSNW_prec_precacc24_210.txt.gz
Total_Precipitation_Accumulation
0.00 0.00 0.00 0.00 0.03 0.08 0.04 0.01 0.00 0.00 0.00 0.00 0.00 0.00 0.00 0.00 0.00 0.00 0.00 0.00 0.00 0.00 0.00 0.00 0.00 0.00 0.00 0.00 0.00 0.00 0.00 0.00 0.00 0.00 0.00 0.00 0.00 0.00 0.01 0.06 0.08 0.22 0.19 0.05
0.00 0.00 0.00 0.00 0.01 0.04 0.04 0.02 0.00 0.00 0.00 0.00 0.00 0.00 0.00 0.00 0.00 0.00 0.00 0.00 0.00 0.00 0.00 0.00 0.00 0.00 0.00 0.00 0.00 0.00 0.00 0.00 0.00 0.00 0.00 0.00 0.00 0.00 0.00 0.01 0.04 0.04 0.10 0.01
0.01 0.01 0.00 0.00 0.00 0.04 0.06 0.03 0.00 0.00 0.00 0.00 0.00 0.00 0.00 0.00 0.00 0.00 0.00 0.00 0.00 0.00 0.00 0.00 0.00 0.00 0.00 0.00 0.00 0.00 0.00 0.00 0.00 0.00 0.00 0.00 0.00 0.00 0.00 0.00 0.01 0.00 0.00 0.00
0.00 0.01 0.01 0.00 0.00 0.01 0.09 0.07 0.01 0.00 0.00 0.00 0.00 0.00 0.00 0.00 0.00 0.00 0.00 0.00 0.00 0.00 0.00 0.00 0.00 0.00 0.00 0.00 0.00 0.00 0.00 0.00 0.00 0.00 0.00 0.00 0.00 0.00 0.00 0.00 0.00 0.00 0.00 0.00
0.00 0.01 0.02 0.01 0.01 0.00 0.07 0.10 0.05 0.02 0.00 0.00 0.00 0.00 0.00 0.00 0.00 0.00 0.00 0.00 0.00 0.00 0.00 0.00 0.00 0.00 0.00 0.00 0.00 0.00 0.00 0.00 0.00 0.00 0.00 0.00 0.00 0.00 0.00 0.00 0.00 0.00 0.00 0.00
0.00 0.01 0.01 0.02 0.03 0.00 0.01 0.06 0.06 0.10 0.04 0.01 0.02 0.01 0.00 0.01 0.00 0.00 0.00 0.00 0.00 0.00 0.00 0.00 0.00 0.00 0.00 0.00 0.00 0.00 0.00 0.00 0.01 0.01 0.00 0.00 0.00 0.00 0.00 0.00 0.00 0.00 0.00 0.00
0.01 0.01 0.01 0.01 0.04 0.04 0.00 0.02 0.04 0.06 0.04 0.02 0.01 0.01 0.00 0.00 0.00 0.03 0.00 0.00 0.00 0.00 0.00 0.00 0.00 0.00 0.00 0.00 0.00 0.00 0.00 0.00 0.02 0.03 0.00 0.00 0.00 0.00 0.00 0.00 0.00 0.00 0.00 0.00
0.03 0.03 0.02 0.01 0.02 0.09 0.02 0.00 0.01 0.06 0.08 0.02 0.01 0.01 0.01 0.00 0.00 0.00 0.00 0.00 0.00 0.00 0.00 0.00 0.00 0.00 0.00 0.00 0.00 0.00 0.00 0.00 0.00 0.01 0.00 0.00 0.00 0.00 0.00 0.00 0.00 0.00 0.00 0.00
0.03 0.03 0.03 0.03 0.04 0.11 0.08 0.02 0.04 0.05 0.10 0.03 0.01 0.01 0.01 0.01 0.01 0.00 0.00 0.00 0.00 0.00 0.00 0.00 0.00 0.00 0.00 0.00 0.00 0.00 0.00 0.00 0.00 0.00 0.00 0.00 0.00 0.00 0.00 0.00 0.00 0.00 0.00 0.00
0.06 0.04 0.03 0.02 0.05 0.11 0.10 0.06 0.06 0.16 0.19 0.05 0.00 0.02 0.02 0.02 0.02 0.02 0.01 0.00 0.00 0.00 0.01 0.01 0.00 0.00 0.00 0.00 0.00 0.00 0.00 0.01 0.01 0.01 0.00 0.00 0.00 0.00 0.00 0.00 0.00 0.00 0.00 0.00
0.03 0.02 0.02 0.02 0.03 0.08 0.11 0.06 0.03 0.14 0.23 0.06 0.00 0.01 0.01 0.00 0.01 0.04 0.02 0.00 0.00 0.00 0.03 0.03 0.01 0.01 0.01 0.00 0.00 0.00 0.00 0.00 0.02 0.02 0.04 0.01 0.00 0.00 0.00 0.00 0.00 0.00 0.00 0.00
0.00 0.00 0.00 0.00 0.00 0.01 0.05 0.09 0.01 0.05 0.16 0.09 0.01 0.00 0.00 0.00 0.00 0.01 0.02 0.02 0.01 0.04 0.10 0.11 0.07 0.06 0.03 0.02 0.02 0.00 0.00 0.00 0.02 0.01 0.00 0.00 0.00 0.00 0.00 0.00 0.00 0.00 0.00 0.00
0.00 0.00 0.00 0.00 0.00 0.01 0.04 0.06 0.03 0.09 0.12 0.08 0.02 0.01 0.00 0.00 0.00 0.00 0.04 0.02 0.00 0.00 0.01 0.05 0.08 0.07 0.04 0.03 0.02 0.00 0.00 0.00 0.01 0.00 0.00 0.00 0.00 0.00 0.00 0.00 0.00 0.00 0.00 0.00
0.00 0.00 0.00 0.00 0.00 0.01 0.03 0.05 0.04 0.15 0.24 0.26 0.04 0.00 0.00 0.00 0.00 0.00 0.00 0.00 0.00 0.00 0.01 0.10 0.12 0.10 0.03 0.03 0.01 0.01 0.00 0.00 0.00 0.00 0.00 0.00 0.00 0.00 0.00 0.00 0.00 0.00 0.00 0.00
0.00 0.00 0.00 0.00 0.01 0.02 0.03 0.04 0.05 0.08 0.22 0.26 0.07 0.01 0.00 0.00 0.00 0.00 0.00 0.00 0.00 0.01 0.03 0.12 0.13 0.07 0.07 0.03 0.02 0.01 0.00 0.00 0.00 0.00 0.00 0.00 0.00 0.00 0.00 0.00 0.00 0.00 0.00 0.00
0.00 0.00 0.00 0.01 0.01 0.03 0.13 0.30 0.10 0.05 0.12 0.37 0.34 0.07 0.00 0.01 0.00 0.00 0.00 0.00 0.01 0.03 0.08 0.09 0.05 0.03 0.09 0.10 0.02 0.00 0.00 0.00 0.00 0.00 0.00 0.00 0.00 0.00 0.00 0.00 0.00 0.00 0.00 0.00
0.00 0.00 0.00 0.01 0.04 0.11 0.25 0.31 0.04 0.02 0.12 0.62 0.74 0.25 0.02 0.00 0.00 0.00 0.00 0.00 0.04 0.13 0.18 0.17 0.07 0.05 0.12 0.14 0.06 0.00 0.00 0.00 0.00 0.00 0.00 0.00 0.00 0.00 0.00 0.00 0.00 0.00 0.00 0.00
0.00 0.00 0.01 0.06 0.08 0.16 0.17 0.06 0.04 0.15 0.55 1.09 0.89 0.27 0.02 0.01 0.07 0.06 0.00 0.02 0.12 0.27 0.18 0.09 0.09 0.13 0.24 0.30 0.01 0.00 0.00 0.00 0.00 0.00 0.00 0.00 0.00 0.00 0.00 0.00 0.00 0.00 0.00 0.00
0.01 0.01 0.07 0.13 0.08 0.13 0.14 0.12 0.18 0.31 0.95 1.18 0.47 0.08 0.02 0.03 0.15 0.10 0.13 0.06 0.32 0.33 0.22 0.04 0.08 0.15 0.33 0.08 0.00 0.00 0.00 0.00 0.00 0.00 0.00 0.00 0.00 0.00 0.00 0.00 0.00 0.00 0.00 0.00
0.01 0.11 0.31 0.26 0.21 0.26 0.39 0.51 0.81 1.38 1.77 1.11 0.29 0.03 0.02 0.04 0.18 0.25 0.33 0.59 0.36 0.37 0.22 0.14 0.27 0.09 0.01 0.00 0.00 0.00 0.00 0.00 0.00 0.00 0.00 0.00 0.00 0.00 0.00 0.00 0.00 0.00 0.00 0.00
0.06 0.20 0.32 0.27 0.24 0.21 0.36 0.36 0.54 0.72 0.63 0.42 0.14 0.08 0.11 0.07 0.13 0.32 0.40 0.68 0.68 0.42 0.09 0.11 0.22 0.14 0.02 0.00 0.00 0.00 0.00 0.00 0.00 0.00 0.00 0.00 0.00 0.00 0.00 0.00 0.00 0.00 0.00 0.00
0.08 0.21 0.29 0.49 0.47 0.42 0.39 0.23 0.21 0.32 0.29 0.40 0.34 0.12 0.08 0.16 0.30 0.55 0.65 0.56 0.51 0.46 0.16 0.28 0.13 0.05 0.00 0.00 0.00 0.00 0.00 0.00 0.00 0.00 0.00 0.00 0.00 0.00 0.00 0.00 0.00 0.00 0.00 0.00
0.11 0.30 0.46 0.50 0.41 0.45 0.43 0.25 0.26 0.32 0.25 0.25 0.16 0.12 0.24 0.42 0.62 0.90 0.68 0.73 0.45 0.28 0.31 0.23 0.10 0.04 0.01 0.00 0.00 0.00 0.00 0.00 0.00 0.00 0.00 0.01 0.00 0.00 0.01 0.00 0.00 0.00 0.00 0.00
0.20 0.30 0.30 0.26 0.27 0.17 0.12 0.10 0.08 0.10 0.15 0.19 0.24 0.24 0.42 0.62 0.80 0.65 0.77 0.51 0.42 0.46 0.36 0.21 0.12 0.09 0.05 0.03 0.03 0.03 0.05 0.04 0.03 0.04 0.06 0.07 0.08 0.05 0.03 0.02 0.00 0.00 0.00 0.00
0.20 0.21 0.20 0.14 0.10 0.06 0.08 0.09 0.12 0.18 0.39 0.63 0.71 0.62 0.64 0.73 0.80 0.49 0.46 0.51 0.56 0.42 0.26 0.24 0.26 0.29 0.27 0.27 0.23 0.18 0.18 0.20 0.23 0.19 0.25 0.20 0.18 0.14 0.09 0.06 0.04 0.01 0.00 0.00
0.16 0.12 0.11 0.05 0.06 0.08 0.10 0.18 0.26 0.30 0.43 0.59 0.76 0.69 0.66 0.58 0.51 0.51 0.43 0.34 0.28 0.31 0.41 0.51 0.48 0.43 0.44 0.47 0.44 0.41 0.42 0.45 0.49 0.42 0.47 0.36 0.39 0.43 0.38 0.25 0.22 0.16 0.09 0.06
0.12 0.12 0.13 0.14 0.11 0.14 0.20 0.27 0.31 0.37 0.44 0.45 0.55 0.48 0.37 0.40 0.38 0.29 0.25 0.32 0.42 0.46 0.44 0.40 0.42 0.39 0.42 0.44 0.40 0.40 0.43 0.44 0.48 0.53 0.58 0.59 0.59 0.56 0.54 0.47 0.56 0.50 0.47 0.40

GFSNW_prec_precacc24_216.txt.gz
Total_Precipitation_Accumulation
0.00 0.00 0.00 0.00 0.00 0.01 0.01 0.01 0.00 0.00 0.00 0.00 0.00 0.00 0.00 0.00 0.00 0.00 0.00 0.00 0.00 0.00 0.00 0.00 0.00 0.00 0.00 0.00 0.00 0.00 0.00 0.00 0.00 0.00 0.00 0.00 0.00 0.00 0.00 0.01 0.01 0.04 0.07 0.03
0.00 0.00 0.00 0.00 0.00 0.00 0.02 0.01 0.00 0.00 0.00 0.00 0.00 0.00 0.00 0.00 0.00 0.00 0.00 0.00 0.00 0.00 0.00 0.00 0.00 0.00 0.00 0.00 0.00 0.00 0.00 0.00 0.00 0.00 0.00 0.00 0.00 0.00 0.00 0.00 0.02 0.03 0.05 0.01
0.00 0.00 0.00 0.00 0.00 0.00 0.02 0.02 0.00 0.00 0.00 0.00 0.00 0.00 0.00 0.00 0.00 0.00 0.00 0.00 0.00 0.00 0.00 0.00 0.00 0.00 0.00 0.00 0.00 0.00 0.00 0.00 0.00 0.00 0.00 0.00 0.00 0.00 0.00 0.00 0.00 0.00 0.00 0.00
0.00 0.00 0.00 0.00 0.00 0.00 0.01 0.02 0.00 0.00 0.00 0.00 0.00 0.00 0.00 0.00 0.00 0.00 0.00 0.00 0.00 0.00 0.00 0.00 0.00 0.00 0.00 0.00 0.00 0.00 0.00 0.00 0.00 0.00 0.00 0.00 0.00 0.00 0.00 0.00 0.00 0.00 0.00 0.00
0.00 0.00 0.00 0.00 0.00 0.00 0.00 0.01 0.02 0.01 0.00 0.00 0.00 0.00 0.00 0.00 0.00 0.00 0.00 0.00 0.00 0.00 0.00 0.00 0.00 0.00 0.00 0.00 0.00 0.00 0.00 0.00 0.00 0.00 0.00 0.00 0.00 0.00 0.00 0.00 0.00 0.00 0.00 0.00
0.00 0.00 0.00 0.00 0.00 0.00 0.00 0.00 0.01 0.03 0.01 0.01 0.02 0.01 0.00 0.01 0.00 0.00 0.00 0.00 0.00 0.00 0.00 0.00 0.00 0.00 0.00 0.00 0.00 0.00 0.00 0.00 0.01 0.02 0.00 0.00 0.00 0.00 0.00 0.00 0.00 0.00 0.00 0.00
0.00 0.00 0.00 0.00 0.01 0.01 0.00 0.00 0.00 0.00 0.01 0.01 0.01 0.01 0.00 0.00 0.00 0.03 0.00 0.00 0.00 0.00 0.00 0.00 0.00 0.00 0.00 0.00 0.00 0.00 0.00 0.00 0.03 0.04 0.00 0.00 0.00 0.00 0.00 0.00 0.00 0.00 0.00 0.00
0.04 0.01 0.00 0.00 0.01 0.04 0.00 0.00 0.00 0.00 0.01 0.00 0.00 0.00 0.00 0.00 0.00 0.00 0.00 0.00 0.00 0.00 0.00 0.00 0.00 0.00 0.00 0.00 0.00 0.00 0.00 0.00 0.01 0.01 0.00 0.00 0.00 0.00 0.00 0.00 0.00 0.00 0.00 0.00
0.04 0.01 0.00 0.01 0.03 0.08 0.02 0.01 0.02 0.03 0.06 0.01 0.00 0.00 0.00 0.00 0.00 0.00 0.00 0.00 0.00 0.00 0.00 0.00 0.00 0.00 0.00 0.00 0.00 0.00 0.00 0.00 0.00 0.00 0.01 0.00 0.00 0.00 0.00 0.00 0.00 0.00 0.00 0.00
0.09 0.08 0.05 0.03 0.06 0.10 0.08 0.04 0.05 0.12 0.16 0.04 0.00 0.00 0.00 0.00 0.00 0.00 0.00 0.00 0.00 0.00 0.01 0.01 0.00 0.00 0.00 0.00 0.00 0.00 0.00 0.01 0.02 0.01 0.02 0.00 0.00 0.00 0.00 0.01 0.02 0.00 0.00 0.00
0.19 0.15 0.10 0.05 0.04 0.08 0.08 0.04 0.03 0.10 0.20 0.05 0.00 0.00 0.01 0.00 0.00 0.00 0.00 0.00 0.00 0.00 0.03 0.03 0.01 0.01 0.01 0.00 0.00 0.00 0.00 0.02 0.04 0.04 0.07 0.02 0.00 0.00 0.01 0.01 0.00 0.00 0.00 0.00
0.20 0.17 0.13 0.08 0.05 0.05 0.05 0.06 0.01 0.03 0.12 0.08 0.01 0.00 0.00 0.00 0.00 0.01 0.01 0.01 0.00 0.03 0.10 0.12 0.08 0.06 0.03 0.02 0.02 0.00 0.00 0.00 0.03 0.07 0.02 0.00 0.00 0.01 0.01 0.00 0.00 0.00 0.00 0.00
0.27 0.24 0.15 0.06 0.04 0.04 0.03 0.02 0.00 0.02 0.03 0.01 0.00 0.00 0.00 0.00 0.00 0.00 0.03 0.01 0.00 0.00 0.01 0.05 0.08 0.08 0.04 0.03 0.02 0.00 0.00 0.00 0.01 0.00 0.00 0.00 0.00 0.00 0.01 0.00 0.00 0.00 0.00 0.00
0.31 0.22 0.12 0.06 0.03 0.02 0.01 0.02 0.01 0.03 0.04 0.04 0.00 0.00 0.00 0.00 0.00 0.00 0.00 0.00 0.00 0.00 0.01 0.08 0.12 0.10 0.03 0.03 0.01 0.01 0.00 0.00 0.00 0.00 0.00 0.00 0.00 0.00 0.00 0.00 0.00 0.00 0.00 0.00
0.12 0.08 0.05 0.02 0.01 0.00 0.01 0.01 0.01 0.01 0.01 0.01 0.00 0.00 0.00 0.00 0.00 0.00 0.00 0.00 0.00 0.01 0.02 0.07 0.10 0.07 0.07 0.03 0.02 0.01 0.00 0.00 0.00 0.00 0.00 0.00 0.00 0.00 0.00 0.00 0.00 0.00 0.00 0.00
0.06 0.03 0.02 0.02 0.01 0.01 0.01 0.01 0.00 0.00 0.01 0.09 0.05 0.00 0.00 0.00 0.00 0.00 0.00 0.00 0.00 0.03 0.07 0.07 0.04 0.03 0.09 0.10 0.02 0.00 0.00 0.00 0.00 0.00 0.00 0.00 0.00 0.00 0.00 0.00 0.00 0.00 0.00 0.00
0.03 0.02 0.01 0.00 0.00 0.01 0.02 0.02 0.00 0.00 0.02 0.14 0.08 0.01 0.00 0.00 0.00 0.00 0.00 0.00 0.04 0.12 0.17 0.14 0.05 0.04 0.11 0.15 0.06 0.00 0.00 0.00 0.00 0.00 0.00 0.00 0.00 0.00 0.00 0.00 0.00 0.00 0.00 0.00
0.00 0.00 0.00 0.00 0.00 0.01 0.02 0.01 0.02 0.08 0.12 0.16 0.13 0.02 0.00 0.00 0.01 0.01 0.00 0.00 0.06 0.20 0.16 0.08 0.06 0.09 0.20 0.25 0.01 0.00 0.00 0.00 0.00 0.00 0.00 0.00 0.00 0.00 0.00 0.00 0.00 0.00 0.00 0.00
0.01 0.00 0.00 0.00 0.00 0.00 0.01 0.01 0.02 0.07 0.15 0.18 0.08 0.01 0.00 0.00 0.03 0.01 0.03 0.03 0.17 0.13 0.12 0.01 0.06 0.12 0.30 0.10 0.01 0.00 0.00 0.00 0.00 0.00 0.00 0.00 0.00 0.00 0.00 0.00 0.00 0.00 0.00 0.00
0.00 0.00 0.00 0.00 0.01 0.04 0.04 0.08 0.26 0.57 0.84 0.57 0.12 0.01 0.01 0.01 0.05 0.10 0.14 0.34 0.23 0.23 0.08 0.04 0.15 0.07 0.03 0.01 0.00 0.00 0.00 0.00 0.00 0.01 0.02 0.01 0.01 0.00 0.00 0.00 0.00 0.00 0.00 0.00
0.00 0.00 0.00 0.00 0.00 0.01 0.13 0.21 0.34 0.36 0.39 0.23 0.07 0.05 0.07 0.05 0.08 0.17 0.24 0.37 0.34 0.26 0.02 0.08 0.09 0.10 0.02 0.00 0.00 0.00 0.00 0.00 0.00 0.00 0.01 0.01 0.03 0.03 0.02 0.00 0.00 0.00 0.00 0.00
0.01 0.02 0.01 0.02 0.06 0.16 0.28 0.20 0.20 0.28 0.26 0.38 0.34 0.12 0.07 0.09 0.17 0.37 0.34 0.23 0.18 0.14 0.09 0.26 0.13 0.07 0.02 0.00 0.00 0.00 0.00 0.00 0.00 0.00 0.02 0.01 0.01 0.01 0.03 0.01 0.00 0.00 0.00 0.00
0.00 0.01 0.03 0.06 0.11 0.20 0.26 0.17 0.23 0.30 0.21 0.22 0.15 0.10 0.18 0.30 0.41 0.53 0.34 0.38 0.13 0.09 0.14 0.17 0.11 0.05 0.01 0.00 0.00 0.00 0.00 0.00 0.00 0.00 0.01 0.01 0.02 0.01 0.04 0.06 0.02 0.04 0.05 0.02
0.00 0.03 0.05 0.07 0.12 0.10 0.07 0.08 0.06 0.05 0.03 0.08 0.19 0.18 0.25 0.32 0.53 0.29 0.35 0.14 0.18 0.28 0.26 0.20 0.10 0.06 0.03 0.02 0.02 0.04 0.04 0.03 0.04 0.05 0.07 0.10 0.11 0.07 0.07 0.14 0.14 0.11 0.09 0.06
0.00 0.04 0.05 0.04 0.02 0.01 0.01 0.01 0.01 0.01 0.05 0.14 0.20 0.28 0.31 0.37 0.44 0.28 0.22 0.23 0.39 0.28 0.16 0.16 0.16 0.16 0.19 0.24 0.21 0.17 0.17 0.20 0.23 0.20 0.28 0.23 0.20 0.19 0.19 0.23 0.19 0.11 0.08 0.05
0.02 0.03 0.02 0.01 0.00 0.00 0.00 0.01 0.04 0.07 0.11 0.15 0.28 0.32 0.32 0.29 0.29 0.36 0.32 0.24 0.18 0.21 0.27 0.31 0.31 0.28 0.32 0.41 0.42 0.41 0.42 0.47 0.51 0.45 0.50 0.39 0.44 0.54 0.54 0.39 0.36 0.29 0.19 0.14
0.05 0.03 0.02 0.03 0.02 0.01 0.01 0.04 0.08 0.14 0.20 0.20 0.34 0.34 0.23 0.29 0.30 0.20 0.16 0.21 0.27 0.34 0.33 0.31 0.34 0.32 0.38 0.43 0.41 0.42 0.46 0.46 0.50 0.56 0.62 0.67 0.67 0.63 0.60 0.55 0.67 0.59 0.54 0.47

GFSNW_prec_precacc24_219.txt.gz
Total_Precipitation_Accumulation
0.00 0.00 0.00 0.00 0.00 0.00 0.01 0.00 0.00 0.00 0.00 0.00 0.00 0.00 0.00 0.00 0.00 0.00 0.00 0.00 0.00 0.00 0.00 0.00 0.00 0.00 0.00 0.00 0.00 0.00 0.00 0.00 0.00 0.00 0.00 0.00 0.00 0.00 0.00 0.01 0.01 0.03 0.06 0.03
0.00 0.00 0.00 0.00 0.00 0.00 0.00 0.00 0.00 0.00 0.00 0.00 0.00 0.00 0.00 0.00 0.00 0.00 0.00 0.00 0.00 0.00 0.00 0.00 0.00 0.00 0.00 0.00 0.00 0.00 0.00 0.00 0.00 0.00 0.00 0.00 0.00 0.00 0.00 0.00 0.02 0.02 0.04 0.00
0.00 0.00 0.00 0.00 0.00 0.00 0.00 0.00 0.00 0.00 0.00 0.00 0.00 0.00 0.00 0.00 0.00 0.00 0.00 0.00 0.00 0.00 0.00 0.00 0.00 0.00 0.00 0.00 0.00 0.00 0.00 0.00 0.00 0.00 0.00 0.00 0.00 0.00 0.00 0.00 0.00 0.00 0.00 0.00
0.00 0.00 0.00 0.00 0.00 0.00 0.00 0.00 0.00 0.00 0.00 0.00 0.00 0.00 0.00 0.00 0.00 0.00 0.00 0.00 0.00 0.00 0.00 0.00 0.00 0.00 0.00 0.00 0.00 0.00 0.00 0.00 0.00 0.00 0.00 0.00 0.00 0.00 0.00 0.00 0.00 0.00 0.00 0.00
0.00 0.00 0.00 0.00 0.00 0.00 0.00 0.00 0.00 0.00 0.00 0.00 0.00 0.00 0.00 0.00 0.00 0.00 0.00 0.00 0.00 0.00 0.00 0.00 0.00 0.00 0.00 0.00 0.00 0.00 0.00 0.00 0.00 0.00 0.00 0.00 0.00 0.00 0.00 0.00 0.00 0.00 0.00 0.00
0.00 0.00 0.00 0.00 0.00 0.00 0.00 0.00 0.00 0.00 0.00 0.01 0.01 0.00 0.00 0.01 0.00 0.00 0.00 0.00 0.00 0.00 0.00 0.00 0.00 0.00 0.00 0.00 0.00 0.00 0.00 0.00 0.01 0.02 0.00 0.00 0.00 0.00 0.00 0.00 0.00 0.00 0.00 0.00
0.03 0.02 0.01 0.00 0.00 0.01 0.00 0.00 0.00 0.00 0.00 0.00 0.00 0.00 0.00 0.00 0.00 0.03 0.00 0.00 0.00 0.00 0.00 0.00 0.00 0.00 0.00 0.00 0.00 0.00 0.00 0.00 0.03 0.04 0.00 0.00 0.00 0.00 0.00 0.00 0.00 0.00 0.00 0.00
0.09 0.05 0.01 0.00 0.00 0.02 0.00 0.00 0.00 0.00 0.00 0.00 0.00 0.00 0.00 0.00 0.00 0.00 0.00 0.00 0.00 0.00 0.00 0.00 0.00 0.00 0.00 0.00 0.00 0.00 0.00 0.00 0.01 0.01 0.00 0.00 0.00 0.00 0.00 0.00 0.00 0.00 0.00 0.00
0.17 0.10 0.05 0.02 0.02 0.05 0.01 0.00 0.01 0.01 0.03 0.01 0.00 0.00 0.00 0.00 0.00 0.00 0.00 0.00 0.00 0.00 0.00 0.00 0.00 0.00 0.00 0.00 0.00 0.00 0.00 0.00 0.00 0.00 0.02 0.00 0.00 0.00 0.00 0.00 0.01 0.01 0.00 0.00
0.21 0.22 0.17 0.09 0.07 0.09 0.06 0.04 0.05 0.10 0.14 0.03 0.00 0.00 0.00 0.00 0.00 0.00 0.00 0.00 0.00 0.00 0.01 0.01 0.00 0.00 0.00 0.00 0.00 0.00 0.00 0.01 0.02 0.01 0.03 0.00 0.00 0.00 0.00 0.01 0.03 0.00 0.00 0.00
0.37 0.31 0.24 0.18 0.11 0.11 0.07 0.06 0.04 0.10 0.18 0.04 0.00 0.00 0.01 0.00 0.00 0.00 0.00 0.00 0.00 0.00 0.03 0.03 0.01 0.01 0.01 0.00 0.00 0.00 0.00 0.02 0.04 0.05 0.08 0.02 0.00 0.00 0.02 0.02 0.00 0.00 0.00 0.00
0.38 0.34 0.28 0.22 0.15 0.12 0.10 0.13 0.06 0.03 0.10 0.05 0.00 0.00 0.00 0.00 0.00 0.01 0.01 0.01 0.00 0.02 0.09 0.12 0.08 0.06 0.03 0.02 0.02 0.00 0.00 0.00 0.03 0.08 0.02 0.00 0.00 0.01 0.01 0.00 0.00 0.00 0.00 0.00
0.34 0.33 0.31 0.24 0.16 0.12 0.09 0.08 0.05 0.02 0.03 0.02 0.00 0.00 0.00 0.00 0.00 0.00 0.03 0.01 0.00 0.00 0.01 0.03 0.05 0.06 0.04 0.03 0.02 0.00 0.00 0.00 0.01 0.00 0.00 0.00 0.00 0.00 0.01 0.00 0.00 0.00 0.00 0.00
0.39 0.38 0.33 0.26 0.22 0.24 0.18 0.11 0.04 0.03 0.04 0.04 0.00 0.00 0.00 0.00 0.00 0.00 0.00 0.00 0.00 0.00 0.01 0.06 0.07 0.05 0.03 0.03 0.01 0.01 0.00 0.00 0.00 0.00 0.00 0.00 0.00 0.00 0.00 0.00 0.00 0.00 0.00 0.00
0.21 0.21 0.19 0.17 0.20 0.17 0.08 0.04 0.02 0.01 0.01 0.02 0.00 0.00 0.00 0.00 0.00 0.00 0.00 0.00 0.00 0.01 0.02 0.06 0.07 0.03 0.04 0.02 0.02 0.01 0.00 0.00 0.00 0.00 0.00 0.00 0.00 0.00 0.00 0.00 0.00 0.00 0.00 0.00
0.13 0.13 0.12 0.11 0.09 0.04 0.03 0.02 0.00 0.00 0.01 0.08 0.04 0.00 0.00 0.00 0.00 0.00 0.00 0.00 0.00 0.01 0.05 0.06 0.03 0.01 0.03 0.04 0.01 0.00 0.00 0.00 0.00 0.00 0.00 0.00 0.00 0.00 0.00 0.00 0.00 0.00 0.00 0.00
0.14 0.08 0.03 0.01 0.01 0.01 0.01 0.00 0.00 0.00 0.01 0.08 0.04 0.00 0.00 0.00 0.00 0.00 0.00 0.00 0.01 0.06 0.12 0.11 0.04 0.03 0.07 0.11 0.05 0.00 0.00 0.00 0.00 0.00 0.00 0.00 0.00 0.00 0.00 0.00 0.00 0.00 0.00 0.00
0.06 0.04 0.01 0.00 0.00 0.01 0.01 0.00 0.01 0.06 0.09 0.10 0.06 0.01 0.00 0.00 0.00 0.00 0.00 0.00 0.02 0.10 0.11 0.07 0.06 0.08 0.17 0.22 0.01 0.00 0.00 0.00 0.00 0.00 0.00 0.00 0.00 0.00 0.00 0.00 0.00 0.00 0.00 0.00
0.02 0.01 0.01 0.00 0.00 0.00 0.00 0.01 0.01 0.06 0.12 0.08 0.03 0.01 0.00 0.00 0.00 0.00 0.00 0.02 0.09 0.09 0.10 0.01 0.06 0.12 0.23 0.08 0.01 0.00 0.00 0.00 0.00 0.00 0.00 0.00 0.00 0.00 0.00 0.00 0.00 0.00 0.00 0.00
0.01 0.00 0.00 0.00 0.00 0.01 0.00 0.00 0.04 0.19 0.39 0.26 0.04 0.00 0.00 0.00 0.01 0.05 0.07 0.16 0.14 0.14 0.06 0.05 0.14 0.08 0.04 0.01 0.00 0.00 0.00 0.00 0.00 0.02 0.02 0.02 0.02 0.00 0.00 0.00 0.00 0.00 0.00 0.00
0.00 0.00 0.00 0.00 0.00 0.00 0.01 0.01 0.11 0.13 0.14 0.09 0.04 0.04 0.04 0.01 0.05 0.11 0.17 0.21 0.22 0.18 0.03 0.08 0.09 0.11 0.02 0.00 0.00 0.00 0.00 0.00 0.00 0.01 0.01 0.02 0.05 0.06 0.03 0.01 0.00 0.00 0.00 0.00
0.01 0.01 0.01 0.01 0.03 0.08 0.09 0.07 0.16 0.24 0.22 0.34 0.32 0.11 0.06 0.05 0.11 0.29 0.21 0.16 0.14 0.10 0.08 0.23 0.14 0.08 0.02 0.00 0.00 0.00 0.00 0.00 0.00 0.00 0.02 0.01 0.01 0.03 0.05 0.02 0.01 0.01 0.01 0.01
0.00 0.00 0.01 0.02 0.03 0.08 0.11 0.12 0.21 0.28 0.19 0.17 0.11 0.08 0.12 0.18 0.28 0.40 0.24 0.27 0.09 0.07 0.10 0.15 0.12 0.05 0.01 0.00 0.00 0.00 0.00 0.00 0.00 0.00 0.01 0.02 0.02 0.01 0.04 0.07 0.03 0.05 0.08 0.08
0.00 0.01 0.01 0.02 0.04 0.04 0.03 0.05 0.04 0.05 0.02 0.04 0.10 0.09 0.16 0.21 0.44 0.20 0.27 0.10 0.16 0.27 0.27 0.19 0.10 0.05 0.02 0.01 0.01 0.04 0.04 0.03 0.04 0.05 0.07 0.11 0.11 0.07 0.07 0.15 0.17 0.16 0.14 0.12
0.00 0.01 0.02 0.01 0.01 0.01 0.02 0.01 0.00 0.00 0.01 0.05 0.07 0.10 0.16 0.19 0.33 0.24 0.22 0.22 0.35 0.23 0.14 0.14 0.11 0.09 0.09 0.10 0.15 0.15 0.16 0.19 0.21 0.20 0.28 0.24 0.20 0.19 0.19 0.25 0.23 0.16 0.15 0.13
0.01 0.01 0.01 0.01 0.00 0.01 0.00 0.00 0.00 0.01 0.04 0.04 0.11 0.13 0.18 0.15 0.22 0.30 0.30 0.22 0.15 0.15 0.19 0.21 0.19 0.15 0.15 0.21 0.24 0.24 0.26 0.33 0.42 0.39 0.47 0.38 0.45 0.57 0.57 0.41 0.38 0.33 0.24 0.19
0.02 0.01 0.00 0.01 0.01 0.00 0.00 0.01 0.03 0.06 0.08 0.09 0.22 0.21 0.13 0.21 0.26 0.16 0.11 0.16 0.18 0.22 0.23 0.21 0.21 0.18 0.21 0.26 0.26 0.29 0.32 0.34 0.41 0.50 0.60 0.67 0.69 0.64 0.60 0.57 0.70 0.63 0.59 0.52

GFSNW_prec_precacc24_222.txt.gz
Total_Precipitation_Accumulation
0.00 0.00 0.00 0.00 0.00 0.00 0.00 0.00 0.00 0.00 0.00 0.00 0.00 0.00 0.00 0.00 0.00 0.00 0.00 0.00 0.00 0.00 0.00 0.00 0.00 0.00 0.00 0.00 0.00 0.00 0.00 0.00 0.00 0.00 0.00 0.00 0.00 0.00 0.00 0.00 0.00 0.02 0.04 0.02
0.00 0.00 0.00 0.00 0.00 0.00 0.00 0.00 0.00 0.00 0.00 0.00 0.00 0.00 0.00 0.00 0.00 0.00 0.00 0.00 0.00 0.00 0.00 0.00 0.00 0.00 0.00 0.00 0.00 0.00 0.00 0.00 0.00 0.00 0.00 0.00 0.00 0.00 0.00 0.00 0.01 0.01 0.04 0.01
0.00 0.00 0.00 0.00 0.00 0.00 0.00 0.00 0.00 0.00 0.00 0.00 0.00 0.00 0.00 0.00 0.00 0.00 0.00 0.00 0.00 0.00 0.00 0.00 0.00 0.00 0.00 0.00 0.00 0.00 0.00 0.00 0.00 0.00 0.00 0.00 0.00 0.00 0.00 0.00 0.01 0.00 0.00 0.00
0.01 0.01 0.00 0.00 0.00 0.00 0.00 0.00 0.00 0.00 0.00 0.00 0.00 0.00 0.00 0.00 0.00 0.00 0.00 0.00 0.00 0.00 0.00 0.00 0.00 0.00 0.00 0.00 0.00 0.00 0.00 0.00 0.00 0.00 0.00 0.00 0.00 0.00 0.00 0.00 0.00 0.00 0.00 0.00
0.00 0.00 0.00 0.00 0.00 0.00 0.00 0.00 0.00 0.00 0.00 0.00 0.00 0.00 0.00 0.00 0.00 0.00 0.00 0.00 0.00 0.00 0.00 0.00 0.00 0.00 0.00 0.00 0.00 0.00 0.00 0.00 0.00 0.00 0.00 0.00 0.00 0.00 0.00 0.00 0.00 0.00 0.00 0.00
0.04 0.03 0.02 0.01 0.00 0.00 0.00 0.00 0.00 0.00 0.00 0.00 0.00 0.00 0.00 0.00 0.00 0.00 0.00 0.00 0.00 0.00 0.00 0.00 0.00 0.00 0.00 0.00 0.00 0.00 0.00 0.00 0.01 0.02 0.00 0.00 0.00 0.00 0.00 0.00 0.00 0.00 0.00 0.00
0.09 0.08 0.05 0.03 0.01 0.01 0.00 0.00 0.00 0.00 0.00 0.00 0.00 0.00 0.00 0.00 0.00 0.01 0.00 0.00 0.00 0.00 0.00 0.00 0.00 0.00 0.00 0.00 0.00 0.00 0.00 0.00 0.03 0.04 0.00 0.00 0.00 0.00 0.00 0.00 0.01 0.02 0.00 0.00
0.21 0.16 0.07 0.06 0.03 0.02 0.00 0.00 0.00 0.00 0.00 0.00 0.00 0.00 0.00 0.00 0.00 0.00 0.00 0.00 0.00 0.00 0.00 0.00 0.00 0.00 0.00 0.00 0.00 0.00 0.00 0.00 0.01 0.01 0.00 0.00 0.00 0.00 0.00 0.00 0.01 0.02 0.00 0.00
0.37 0.29 0.22 0.16 0.09 0.07 0.02 0.00 0.00 0.01 0.02 0.01 0.00 0.00 0.00 0.00 0.00 0.00 0.00 0.00 0.00 0.00 0.00 0.00 0.00 0.00 0.00 0.00 0.00 0.00 0.00 0.00 0.00 0.00 0.02 0.00 0.00 0.00 0.00 0.00 0.02 0.01 0.00 0.00
0.37 0.43 0.37 0.27 0.19 0.15 0.09 0.08 0.07 0.11 0.14 0.05 0.02 0.02 0.01 0.00 0.00 0.00 0.00 0.00 0.00 0.00 0.01 0.01 0.00 0.00 0.00 0.00 0.00 0.00 0.00 0.01 0.02 0.01 0.04 0.00 0.00 0.00 0.00 0.02 0.03 0.00 0.00 0.00
0.62 0.57 0.44 0.39 0.30 0.23 0.16 0.19 0.15 0.15 0.24 0.12 0.05 0.02 0.01 0.00 0.00 0.01 0.00 0.00 0.00 0.00 0.02 0.02 0.01 0.01 0.01 0.00 0.00 0.00 0.00 0.02 0.05 0.05 0.09 0.02 0.00 0.00 0.02 0.02 0.00 0.00 0.00 0.00
0.52 0.47 0.41 0.36 0.30 0.25 0.20 0.26 0.24 0.18 0.22 0.16 0.05 0.02 0.00 0.00 0.00 0.01 0.01 0.01 0.00 0.01 0.06 0.09 0.06 0.05 0.03 0.02 0.02 0.00 0.00 0.00 0.03 0.08 0.02 0.00 0.00 0.01 0.01 0.00 0.00 0.00 0.00 0.00
0.39 0.39 0.37 0.31 0.24 0.17 0.13 0.16 0.23 0.23 0.18 0.10 0.04 0.01 0.00 0.00 0.00 0.00 0.02 0.01 0.00 0.00 0.00 0.02 0.02 0.02 0.02 0.03 0.01 0.00 0.00 0.00 0.01 0.00 0.00 0.00 0.00 0.00 0.01 0.00 0.00 0.00 0.00 0.00
0.42 0.41 0.37 0.30 0.27 0.27 0.22 0.23 0.21 0.15 0.12 0.09 0.03 0.00 0.00 0.00 0.00 0.00 0.00 0.00 0.00 0.00 0.01 0.06 0.06 0.04 0.01 0.00 0.00 0.01 0.00 0.00 0.00 0.00 0.00 0.00 0.00 0.00 0.00 0.00 0.00 0.00 0.00 0.00
0.23 0.24 0.25 0.22 0.24 0.21 0.12 0.12 0.12 0.06 0.04 0.06 0.03 0.01 0.01 0.00 0.00 0.00 0.00 0.00 0.00 0.00 0.01 0.05 0.05 0.03 0.02 0.01 0.01 0.00 0.00 0.00 0.00 0.00 0.00 0.00 0.00 0.00 0.00 0.00 0.00 0.00 0.00 0.00
0.16 0.18 0.17 0.16 0.16 0.07 0.06 0.08 0.05 0.01 0.01 0.07 0.03 0.00 0.00 0.00 0.00 0.00 0.00 0.00 0.00 0.01 0.03 0.03 0.02 0.01 0.02 0.02 0.00 0.00 0.00 0.00 0.00 0.00 0.00 0.00 0.00 0.00 0.00 0.00 0.00 0.00 0.00 0.00
0.20 0.16 0.12 0.12 0.07 0.03 0.01 0.00 0.00 0.00 0.01 0.04 0.02 0.00 0.00 0.00 0.00 0.00 0.00 0.00 0.00 0.01 0.04 0.04 0.01 0.01 0.05 0.10 0.05 0.00 0.00 0.00 0.00 0.00 0.00 0.00 0.00 0.00 0.00 0.00 0.00 0.00 0.00 0.00
0.14 0.11 0.09 0.07 0.04 0.01 0.01 0.00 0.01 0.05 0.07 0.07 0.03 0.00 0.00 0.00 0.00 0.00 0.00 0.00 0.00 0.02 0.04 0.03 0.03 0.05 0.11 0.16 0.01 0.00 0.00 0.00 0.00 0.00 0.00 0.00 0.00 0.00 0.00 0.00 0.00 0.00 0.00 0.00
0.04 0.03 0.02 0.01 0.00 0.00 0.00 0.00 0.01 0.04 0.08 0.07 0.03 0.01 0.00 0.00 0.00 0.00 0.00 0.01 0.04 0.05 0.08 0.01 0.04 0.08 0.15 0.07 0.02 0.00 0.00 0.00 0.00 0.00 0.00 0.00 0.00 0.00 0.00 0.00 0.00 0.00 0.00 0.00
0.01 0.00 0.00 0.00 0.00 0.00 0.00 0.00 0.00 0.06 0.16 0.15 0.04 0.00 0.00 0.00 0.00 0.01 0.03 0.07 0.08 0.09 0.05 0.05 0.11 0.07 0.04 0.01 0.00 0.00 0.00 0.00 0.00 0.02 0.03 0.03 0.03 0.00 0.00 0.00 0.00 0.01 0.01 0.01
0.00 0.00 0.01 0.00 0.00 0.00 0.00 0.00 0.00 0.03 0.06 0.04 0.03 0.04 0.04 0.01 0.03 0.06 0.06 0.08 0.11 0.13 0.03 0.09 0.09 0.12 0.03 0.00 0.00 0.00 0.00 0.00 0.00 0.01 0.01 0.02 0.07 0.07 0.04 0.01 0.00 0.00 0.01 0.02
0.00 0.01 0.01 0.01 0.01 0.04 0.04 0.02 0.05 0.13 0.16 0.25 0.26 0.09 0.06 0.05 0.08 0.16 0.06 0.07 0.06 0.06 0.08 0.21 0.14 0.08 0.02 0.00 0.00 0.00 0.00 0.00 0.00 0.00 0.02 0.01 0.01 0.03 0.06 0.03 0.02 0.02 0.02 0.03
0.00 0.00 0.00 0.01 0.01 0.03 0.03 0.02 0.08 0.19 0.12 0.09 0.04 0.03 0.06 0.11 0.17 0.22 0.13 0.18 0.05 0.05 0.08 0.15 0.12 0.06 0.01 0.00 0.00 0.00 0.00 0.00 0.00 0.00 0.01 0.02 0.02 0.01 0.05 0.09 0.04 0.06 0.09 0.11
0.00 0.00 0.00 0.01 0.01 0.01 0.01 0.02 0.02 0.04 0.02 0.01 0.03 0.03 0.06 0.13 0.31 0.11 0.16 0.07 0.14 0.25 0.26 0.19 0.10 0.05 0.02 0.00 0.01 0.02 0.03 0.03 0.04 0.04 0.05 0.09 0.09 0.06 0.07 0.16 0.18 0.19 0.16 0.15
0.00 0.00 0.01 0.00 0.00 0.01 0.02 0.01 0.00 0.00 0.00 0.01 0.02 0.03 0.07 0.08 0.21 0.18 0.19 0.18 0.33 0.21 0.13 0.14 0.10 0.07 0.06 0.06 0.06 0.08 0.11 0.15 0.16 0.16 0.17 0.18 0.13 0.12 0.15 0.24 0.24 0.18 0.17 0.16
0.00 0.00 0.00 0.01 0.00 0.02 0.01 0.00 0.00 0.00 0.01 0.00 0.04 0.06 0.07 0.09 0.16 0.24 0.27 0.21 0.14 0.14 0.16 0.14 0.12 0.09 0.08 0.11 0.13 0.16 0.17 0.22 0.26 0.25 0.36 0.29 0.33 0.46 0.50 0.38 0.36 0.33 0.25 0.20
0.01 0.01 0.00 0.00 0.00 0.00 0.00 0.00 0.02 0.03 0.03 0.03 0.12 0.12 0.05 0.14 0.23 0.15 0.11 0.15 0.16 0.16 0.15 0.15 0.15 0.12 0.11 0.15 0.16 0.16 0.17 0.17 0.21 0.30 0.43 0.54 0.59 0.54 0.53 0.53 0.68 0.64 0.61 0.54

GFSNW_prec_precacc24_225.txt.gz
Total_Precipitation_Accumulation
0.00 0.00 0.00 0.00 0.00 0.00 0.00 0.00 0.00 0.00 0.00 0.00 0.00 0.00 0.00 0.00 0.00 0.00 0.00 0.00 0.00 0.00 0.00 0.00 0.00 0.00 0.00 0.00 0.00 0.00 0.00 0.00 0.00 0.00 0.00 0.00 0.00 0.00 0.00 0.00 0.00 0.01 0.02 0.02
0.00 0.00 0.00 0.00 0.00 0.00 0.00 0.00 0.00 0.00 0.00 0.00 0.00 0.00 0.00 0.00 0.00 0.00 0.00 0.00 0.00 0.00 0.00 0.00 0.00 0.00 0.00 0.00 0.00 0.00 0.00 0.00 0.00 0.00 0.00 0.00 0.00 0.00 0.00 0.00 0.01 0.02 0.04 0.00
0.00 0.00 0.00 0.00 0.00 0.00 0.00 0.00 0.00 0.00 0.00 0.00 0.00 0.00 0.00 0.00 0.00 0.00 0.00 0.00 0.00 0.00 0.00 0.00 0.00 0.00 0.00 0.00 0.00 0.00 0.00 0.00 0.00 0.00 0.00 0.00 0.00 0.00 0.00 0.00 0.01 0.00 0.00 0.00
0.01 0.01 0.00 0.00 0.00 0.00 0.00 0.00 0.00 0.00 0.00 0.00 0.00 0.00 0.00 0.00 0.00 0.00 0.00 0.00 0.00 0.00 0.00 0.00 0.00 0.00 0.00 0.00 0.00 0.00 0.00 0.00 0.00 0.00 0.00 0.00 0.00 0.00 0.00 0.00 0.00 0.00 0.00 0.00
0.01 0.01 0.01 0.02 0.00 0.00 0.00 0.00 0.00 0.00 0.00 0.00 0.00 0.00 0.00 0.00 0.00 0.00 0.00 0.00 0.00 0.00 0.00 0.00 0.00 0.00 0.00 0.00 0.00 0.00 0.00 0.00 0.00 0.00 0.00 0.00 0.00 0.00 0.00 0.00 0.00 0.00 0.00 0.00
0.08 0.08 0.07 0.06 0.02 0.00 0.00 0.00 0.00 0.00 0.00 0.00 0.00 0.00 0.00 0.00 0.00 0.00 0.00 0.00 0.00 0.00 0.00 0.00 0.00 0.00 0.00 0.00 0.00 0.00 0.00 0.00 0.01 0.02 0.00 0.00 0.00 0.00 0.00 0.00 0.00 0.00 0.00 0.00
0.14 0.14 0.14 0.15 0.11 0.04 0.01 0.00 0.00 0.00 0.00 0.00 0.00 0.00 0.00 0.00 0.00 0.00 0.00 0.00 0.00 0.00 0.00 0.00 0.00 0.00 0.00 0.00 0.00 0.00 0.00 0.00 0.03 0.04 0.00 0.00 0.00 0.00 0.00 0.00 0.01 0.02 0.01 0.00
0.28 0.24 0.18 0.19 0.17 0.11 0.05 0.04 0.02 0.01 0.01 0.00 0.00 0.00 0.00 0.00 0.00 0.00 0.00 0.00 0.00 0.00 0.00 0.00 0.00 0.00 0.00 0.00 0.00 0.00 0.00 0.00 0.01 0.01 0.00 0.00 0.00 0.00 0.00 0.00 0.03 0.02 0.01 0.00
0.48 0.43 0.36 0.28 0.24 0.24 0.19 0.14 0.05 0.03 0.02 0.02 0.01 0.02 0.02 0.03 0.02 0.01 0.00 0.00 0.00 0.00 0.00 0.00 0.00 0.00 0.00 0.00 0.00 0.00 0.00 0.00 0.00 0.00 0.02 0.00 0.00 0.00 0.00 0.00 0.04 0.01 0.00 0.00
0.42 0.50 0.48 0.43 0.44 0.39 0.29 0.26 0.16 0.20 0.22 0.13 0.07 0.08 0.06 0.04 0.02 0.01 0.00 0.00 0.00 0.00 0.01 0.01 0.00 0.00 0.00 0.00 0.00 0.00 0.00 0.01 0.02 0.01 0.04 0.00 0.00 0.00 0.00 0.02 0.03 0.00 0.00 0.00
0.71 0.79 0.70 0.63 0.57 0.49 0.39 0.44 0.32 0.30 0.43 0.32 0.13 0.06 0.04 0.02 0.01 0.01 0.01 0.01 0.00 0.00 0.01 0.01 0.00 0.01 0.01 0.00 0.00 0.00 0.00 0.02 0.05 0.05 0.09 0.02 0.00 0.00 0.02 0.02 0.00 0.00 0.00 0.00
0.54 0.54 0.53 0.52 0.49 0.40 0.31 0.42 0.40 0.31 0.40 0.39 0.15 0.07 0.02 0.00 0.00 0.01 0.01 0.01 0.01 0.01 0.03 0.05 0.02 0.02 0.01 0.02 0.02 0.00 0.00 0.00 0.03 0.08 0.02 0.00 0.00 0.01 0.01 0.00 0.00 0.00 0.00 0.00
0.39 0.40 0.40 0.38 0.35 0.27 0.18 0.23 0.36 0.41 0.38 0.23 0.11 0.03 0.01 0.00 0.00 0.00 0.02 0.01 0.00 0.00 0.00 0.02 0.01 0.01 0.00 0.00 0.00 0.00 0.00 0.00 0.01 0.00 0.00 0.00 0.00 0.00 0.01 0.00 0.00 0.00 0.00 0.00
0.42 0.42 0.38 0.33 0.30 0.30 0.23 0.23 0.22 0.16 0.14 0.11 0.04 0.00 0.00 0.00 0.00 0.00 0.00 0.00 0.00 0.00 0.01 0.05 0.05 0.03 0.01 0.00 0.00 0.00 0.00 0.00 0.00 0.00 0.00 0.00 0.00 0.00 0.00 0.00 0.00 0.00 0.00 0.00
0.24 0.26 0.27 0.26 0.28 0.22 0.12 0.13 0.13 0.07 0.05 0.07 0.03 0.01 0.01 0.01 0.01 0.00 0.00 0.00 0.00 0.00 0.01 0.04 0.04 0.02 0.02 0.01 0.01 0.00 0.00 0.00 0.00 0.00 0.00 0.00 0.00 0.00 0.00 0.00 0.00 0.00 0.00 0.00
0.18 0.20 0.20 0.19 0.17 0.07 0.06 0.09 0.06 0.02 0.01 0.04 0.02 0.00 0.00 0.00 0.00 0.00 0.00 0.00 0.00 0.00 0.02 0.02 0.01 0.00 0.01 0.01 0.00 0.00 0.00 0.00 0.00 0.00 0.00 0.00 0.00 0.00 0.00 0.00 0.00 0.00 0.00 0.00
0.23 0.20 0.16 0.14 0.08 0.03 0.01 0.00 0.00 0.00 0.01 0.01 0.01 0.00 0.00 0.00 0.00 0.00 0.00 0.00 0.00 0.01 0.03 0.03 0.01 0.00 0.02 0.06 0.03 0.00 0.00 0.00 0.00 0.00 0.00 0.00 0.00 0.00 0.00 0.00 0.00 0.00 0.00 0.00
0.20 0.17 0.14 0.10 0.05 0.01 0.01 0.00 0.01 0.04 0.05 0.05 0.01 0.00 0.00 0.00 0.00 0.00 0.00 0.00 0.00 0.02 0.02 0.01 0.00 0.01 0.05 0.08 0.01 0.00 0.00 0.00 0.00 0.00 0.00 0.00 0.00 0.00 0.00 0.00 0.00 0.00 0.00 0.00
0.09 0.06 0.03 0.02 0.01 0.00 0.00 0.00 0.01 0.03 0.05 0.04 0.02 0.01 0.00 0.00 0.00 0.00 0.00 0.01 0.03 0.04 0.07 0.00 0.01 0.03 0.10 0.05 0.02 0.00 0.00 0.00 0.00 0.00 0.00 0.00 0.00 0.00 0.00 0.00 0.00 0.01 0.00 0.00
0.02 0.00 0.01 0.04 0.02 0.00 0.00 0.00 0.00 0.04 0.10 0.07 0.02 0.00 0.00 0.00 0.00 0.01 0.01 0.04 0.06 0.07 0.03 0.04 0.07 0.07 0.05 0.01 0.00 0.00 0.00 0.00 0.00 0.02 0.03 0.03 0.03 0.00 0.00 0.00 0.00 0.01 0.01 0.01
0.01 0.01 0.06 0.03 0.00 0.00 0.00 0.00 0.00 0.01 0.04 0.02 0.02 0.04 0.04 0.01 0.03 0.05 0.02 0.03 0.04 0.09 0.03 0.09 0.10 0.13 0.03 0.00 0.00 0.00 0.00 0.00 0.00 0.01 0.01 0.02 0.07 0.08 0.05 0.02 0.00 0.00 0.01 0.02
0.00 0.01 0.02 0.00 0.01 0.01 0.01 0.01 0.01 0.04 0.09 0.16 0.16 0.05 0.02 0.03 0.07 0.10 0.02 0.03 0.02 0.03 0.08 0.20 0.14 0.09 0.02 0.00 0.00 0.00 0.00 0.00 0.00 0.00 0.02 0.01 0.01 0.03 0.07 0.03 0.03 0.02 0.03 0.04
0.01 0.02 0.01 0.00 0.01 0.01 0.01 0.00 0.03 0.10 0.05 0.04 0.00 0.00 0.01 0.05 0.12 0.12 0.07 0.09 0.02 0.03 0.06 0.15 0.13 0.06 0.01 0.00 0.00 0.00 0.00 0.00 0.00 0.00 0.01 0.02 0.02 0.01 0.05 0.09 0.04 0.06 0.09 0.11
0.02 0.01 0.01 0.00 0.00 0.00 0.00 0.02 0.02 0.03 0.01 0.00 0.00 0.00 0.01 0.03 0.16 0.05 0.10 0.03 0.10 0.21 0.24 0.19 0.10 0.04 0.01 0.00 0.01 0.02 0.02 0.02 0.03 0.04 0.05 0.09 0.09 0.06 0.07 0.16 0.19 0.20 0.17 0.16
0.01 0.01 0.00 0.00 0.00 0.01 0.02 0.01 0.00 0.00 0.00 0.00 0.00 0.01 0.03 0.03 0.10 0.12 0.16 0.17 0.30 0.19 0.12 0.13 0.07 0.03 0.03 0.04 0.04 0.05 0.06 0.08 0.11 0.14 0.16 0.17 0.13 0.12 0.15 0.22 0.21 0.18 0.18 0.16
0.00 0.00 0.00 0.01 0.01 0.02 0.01 0.00 0.00 0.00 0.00 0.00 0.01 0.02 0.03 0.03 0.10 0.18 0.23 0.19 0.13 0.12 0.13 0.09 0.05 0.04 0.05 0.07 0.08 0.10 0.11 0.14 0.16 0.18 0.23 0.19 0.24 0.36 0.39 0.28 0.22 0.22 0.20 0.17
0.00 0.01 0.00 0.00 0.00 0.00 0.00 0.00 0.01 0.01 0.01 0.01 0.05 0.06 0.02 0.08 0.16 0.12 0.09 0.13 0.12 0.11 0.09 0.08 0.09 0.08 0.08 0.09 0.10 0.10 0.11 0.12 0.14 0.18 0.28 0.35 0.36 0.33 0.28 0.34 0.47 0.45 0.47 0.47

GFSNW_prec_precacc24_228.txt.gz
Total_Precipitation_Accumulation
0.00 0.00 0.00 0.00 0.00 0.00 0.00 0.00 0.00 0.00 0.00 0.00 0.00 0.00 0.00 0.00 0.00 0.00 0.00 0.00 0.00 0.00 0.00 0.00 0.00 0.00 0.00 0.00 0.00 0.00 0.00 0.00 0.00 0.00 0.00 0.00 0.00 0.00 0.00 0.00 0.00 0.01 0.02 0.01
0.00 0.00 0.00 0.00 0.00 0.00 0.00 0.00 0.00 0.00 0.00 0.00 0.00 0.00 0.00 0.00 0.00 0.00 0.00 0.00 0.00 0.00 0.00 0.00 0.00 0.00 0.00 0.00 0.00 0.00 0.00 0.00 0.00 0.00 0.00 0.00 0.00 0.00 0.00 0.00 0.00 0.02 0.04 0.00
0.00 0.00 0.00 0.00 0.00 0.00 0.00 0.00 0.00 0.00 0.00 0.00 0.00 0.00 0.00 0.00 0.00 0.00 0.00 0.00 0.00 0.00 0.00 0.00 0.00 0.00 0.00 0.00 0.00 0.00 0.00 0.00 0.00 0.00 0.00 0.00 0.00 0.00 0.00 0.00 0.01 0.00 0.00 0.00
0.01 0.01 0.00 0.00 0.00 0.00 0.00 0.00 0.00 0.00 0.00 0.00 0.00 0.00 0.00 0.00 0.00 0.00 0.00 0.00 0.00 0.00 0.00 0.00 0.00 0.00 0.00 0.00 0.00 0.00 0.00 0.00 0.00 0.00 0.00 0.00 0.00 0.00 0.00 0.00 0.00 0.00 0.00 0.00
0.01 0.01 0.01 0.02 0.01 0.01 0.00 0.00 0.00 0.00 0.00 0.00 0.00 0.00 0.00 0.00 0.00 0.00 0.00 0.00 0.00 0.00 0.00 0.00 0.00 0.00 0.00 0.00 0.00 0.00 0.00 0.00 0.00 0.00 0.00 0.00 0.00 0.00 0.00 0.00 0.00 0.00 0.00 0.00
0.08 0.08 0.07 0.08 0.05 0.03 0.01 0.00 0.00 0.00 0.01 0.00 0.00 0.00 0.00 0.00 0.00 0.00 0.00 0.00 0.00 0.00 0.00 0.00 0.00 0.00 0.00 0.00 0.00 0.00 0.00 0.00 0.01 0.02 0.00 0.00 0.00 0.00 0.00 0.00 0.00 0.00 0.01 0.00
0.15 0.16 0.15 0.20 0.19 0.12 0.05 0.02 0.01 0.01 0.01 0.00 0.00 0.00 0.00 0.00 0.00 0.00 0.00 0.00 0.00 0.00 0.00 0.00 0.00 0.00 0.00 0.00 0.00 0.00 0.00 0.00 0.03 0.03 0.00 0.00 0.00 0.00 0.00 0.00 0.02 0.03 0.01 0.00
0.31 0.29 0.22 0.23 0.24 0.25 0.16 0.09 0.05 0.05 0.04 0.00 0.00 0.00 0.01 0.01 0.01 0.01 0.00 0.00 0.00 0.00 0.00 0.00 0.00 0.00 0.00 0.00 0.00 0.00 0.00 0.00 0.01 0.01 0.00 0.00 0.00 0.00 0.00 0.00 0.04 0.02 0.01 0.00
0.52 0.50 0.47 0.44 0.39 0.42 0.36 0.28 0.14 0.13 0.13 0.06 0.01 0.04 0.05 0.06 0.03 0.01 0.00 0.00 0.00 0.00 0.00 0.00 0.00 0.01 0.00 0.00 0.00 0.00 0.00 0.00 0.00 0.00 0.02 0.00 0.00 0.00 0.00 0.00 0.05 0.01 0.00 0.00
0.42 0.53 0.56 0.54 0.59 0.55 0.48 0.53 0.35 0.42 0.42 0.22 0.10 0.15 0.14 0.08 0.04 0.02 0.00 0.00 0.00 0.00 0.00 0.02 0.01 0.00 0.00 0.00 0.00 0.00 0.00 0.01 0.01 0.01 0.04 0.00 0.00 0.00 0.00 0.02 0.03 0.00 0.00 0.00
0.71 0.79 0.75 0.77 0.74 0.65 0.54 0.69 0.56 0.58 0.67 0.50 0.22 0.12 0.08 0.04 0.02 0.02 0.01 0.01 0.00 0.00 0.02 0.01 0.00 0.00 0.00 0.00 0.00 0.00 0.01 0.02 0.04 0.05 0.09 0.02 0.00 0.00 0.02 0.02 0.00 0.00 0.00 0.00
0.54 0.54 0.53 0.54 0.58 0.53 0.41 0.63 0.67 0.63 0.71 0.65 0.28 0.11 0.02 0.00 0.00 0.01 0.01 0.02 0.02 0.02 0.02 0.02 0.02 0.01 0.00 0.00 0.00 0.00 0.00 0.00 0.03 0.08 0.02 0.00 0.00 0.01 0.01 0.00 0.00 0.00 0.00 0.00
0.39 0.40 0.40 0.38 0.37 0.30 0.21 0.29 0.49 0.56 0.52 0.32 0.15 0.04 0.01 0.00 0.00 0.00 0.02 0.02 0.01 0.01 0.01 0.03 0.01 0.01 0.00 0.00 0.00 0.00 0.00 0.00 0.01 0.00 0.00 0.00 0.00 0.00 0.01 0.00 0.00 0.00 0.00 0.00
0.42 0.42 0.39 0.34 0.33 0.31 0.23 0.23 0.23 0.17 0.15 0.11 0.04 0.00 0.00 0.00 0.00 0.00 0.00 0.00 0.00 0.00 0.01 0.05 0.04 0.02 0.00 0.00 0.00 0.00 0.00 0.00 0.00 0.00 0.00 0.00 0.00 0.00 0.00 0.00 0.00 0.00 0.00 0.00
0.25 0.26 0.28 0.28 0.30 0.22 0.12 0.13 0.13 0.07 0.05 0.06 0.03 0.02 0.01 0.01 0.01 0.00 0.00 0.00 0.00 0.00 0.01 0.02 0.02 0.01 0.01 0.00 0.00 0.00 0.00 0.00 0.00 0.00 0.00 0.00 0.00 0.00 0.00 0.00 0.00 0.00 0.00 0.00
0.19 0.22 0.22 0.21 0.18 0.07 0.06 0.09 0.06 0.02 0.01 0.03 0.02 0.00 0.00 0.00 0.00 0.00 0.00 0.00 0.00 0.00 0.01 0.01 0.00 0.00 0.01 0.01 0.00 0.00 0.00 0.00 0.00 0.00 0.00 0.00 0.00 0.00 0.00 0.00 0.00 0.00 0.00 0.00
0.25 0.23 0.18 0.14 0.08 0.03 0.01 0.00 0.00 0.00 0.00 0.01 0.00 0.00 0.00 0.00 0.00 0.00 0.00 0.00 0.00 0.00 0.02 0.02 0.00 0.00 0.01 0.04 0.01 0.00 0.00 0.00 0.00 0.00 0.00 0.00 0.00 0.00 0.00 0.00 0.00 0.00 0.00 0.00
0.25 0.21 0.16 0.11 0.05 0.01 0.00 0.00 0.01 0.02 0.02 0.02 0.01 0.00 0.00 0.00 0.00 0.00 0.00 0.00 0.00 0.01 0.02 0.00 0.00 0.01 0.03 0.05 0.01 0.00 0.00 0.00 0.00 0.00 0.00 0.00 0.00 0.00 0.00 0.00 0.00 0.00 0.00 0.00
0.13 0.08 0.03 0.02 0.01 0.00 0.00 0.00 0.00 0.02 0.03 0.02 0.01 0.00 0.00 0.00 0.00 0.00 0.00 0.01 0.02 0.04 0.07 0.00 0.01 0.03 0.07 0.04 0.02 0.00 0.00 0.00 0.00 0.00 0.00 0.00 0.00 0.00 0.00 0.00 0.00 0.01 0.00 0.00
0.02 0.01 0.02 0.06 0.02 0.00 0.00 0.00 0.00 0.02 0.05 0.02 0.01 0.00 0.00 0.00 0.00 0.01 0.01 0.03 0.04 0.07 0.03 0.04 0.05 0.07 0.05 0.01 0.00 0.00 0.00 0.00 0.00 0.02 0.03 0.03 0.03 0.00 0.00 0.00 0.00 0.01 0.02 0.02
0.01 0.03 0.10 0.05 0.00 0.00 0.00 0.00 0.00 0.00 0.03 0.01 0.01 0.02 0.01 0.00 0.01 0.03 0.01 0.02 0.02 0.05 0.03 0.09 0.09 0.14 0.04 0.00 0.00 0.00 0.00 0.00 0.00 0.01 0.01 0.02 0.08 0.08 0.05 0.02 0.00 0.01 0.02 0.03
0.00 0.01 0.03 0.00 0.01 0.01 0.01 0.00 0.00 0.01 0.03 0.09 0.10 0.03 0.00 0.00 0.03 0.05 0.01 0.02 0.02 0.02 0.07 0.18 0.14 0.10 0.03 0.00 0.00 0.00 0.00 0.00 0.00 0.00 0.02 0.01 0.01 0.03 0.07 0.03 0.03 0.03 0.03 0.04
0.02 0.02 0.01 0.01 0.01 0.01 0.01 0.00 0.01 0.07 0.04 0.03 0.00 0.00 0.00 0.01 0.06 0.06 0.04 0.04 0.01 0.02 0.04 0.14 0.12 0.06 0.02 0.00 0.00 0.00 0.00 0.00 0.00 0.00 0.01 0.02 0.02 0.01 0.05 0.10 0.04 0.07 0.10 0.11
0.05 0.02 0.01 0.00 0.00 0.00 0.00 0.01 0.01 0.02 0.00 0.00 0.00 0.00 0.00 0.00 0.03 0.03 0.05 0.01 0.05 0.16 0.21 0.17 0.09 0.04 0.00 0.00 0.00 0.01 0.01 0.01 0.02 0.03 0.05 0.09 0.09 0.06 0.07 0.16 0.19 0.20 0.18 0.16
0.03 0.02 0.02 0.00 0.00 0.01 0.02 0.01 0.00 0.00 0.00 0.00 0.00 0.01 0.02 0.01 0.02 0.04 0.10 0.14 0.26 0.15 0.09 0.10 0.06 0.02 0.02 0.01 0.02 0.03 0.03 0.04 0.05 0.07 0.12 0.15 0.12 0.12 0.15 0.22 0.22 0.18 0.18 0.16
0.01 0.00 0.00 0.01 0.00 0.03 0.01 0.00 0.00 0.00 0.00 0.00 0.01 0.01 0.02 0.01 0.04 0.10 0.14 0.13 0.09 0.09 0.09 0.06 0.03 0.01 0.03 0.05 0.06 0.08 0.08 0.09 0.10 0.12 0.16 0.13 0.17 0.32 0.38 0.28 0.21 0.20 0.19 0.16
0.00 0.01 0.00 0.00 0.00 0.00 0.00 0.00 0.01 0.00 0.00 0.00 0.02 0.03 0.01 0.04 0.09 0.08 0.06 0.08 0.08 0.08 0.06 0.04 0.05 0.05 0.05 0.06 0.07 0.07 0.07 0.07 0.08 0.12 0.18 0.24 0.26 0.25 0.24 0.28 0.33 0.27 0.27 0.31

GFSNW_prec_precacc24_231.txt.gz
Total_Precipitation_Accumulation
0.00 0.00 0.00 0.00 0.00 0.00 0.00 0.00 0.00 0.00 0.00 0.00 0.00 0.00 0.00 0.00 0.00 0.00 0.00 0.00 0.00 0.00 0.00 0.00 0.00 0.00 0.00 0.00 0.00 0.00 0.00 0.00 0.00 0.00 0.00 0.00 0.00 0.00 0.00 0.00 0.00 0.00 0.01 0.01
0.00 0.00 0.00 0.00 0.00 0.00 0.00 0.00 0.00 0.00 0.00 0.00 0.00 0.00 0.00 0.00 0.00 0.00 0.00 0.00 0.00 0.00 0.00 0.00 0.00 0.00 0.00 0.00 0.00 0.00 0.00 0.00 0.00 0.00 0.00 0.00 0.00 0.00 0.00 0.00 0.00 0.01 0.03 0.00
0.00 0.00 0.00 0.00 0.00 0.00 0.00 0.00 0.00 0.00 0.00 0.00 0.00 0.00 0.00 0.00 0.00 0.00 0.00 0.00 0.00 0.00 0.00 0.00 0.00 0.00 0.00 0.00 0.00 0.00 0.00 0.00 0.00 0.00 0.00 0.00 0.00 0.00 0.00 0.00 0.01 0.00 0.00 0.00
0.01 0.01 0.00 0.00 0.00 0.00 0.00 0.00 0.00 0.00 0.00 0.00 0.00 0.00 0.00 0.00 0.00 0.00 0.00 0.00 0.00 0.00 0.00 0.00 0.00 0.00 0.00 0.00 0.00 0.00 0.00 0.00 0.00 0.00 0.00 0.00 0.00 0.00 0.00 0.00 0.00 0.00 0.00 0.00
0.01 0.01 0.01 0.02 0.01 0.01 0.00 0.00 0.00 0.00 0.00 0.00 0.00 0.00 0.00 0.00 0.00 0.00 0.00 0.00 0.00 0.00 0.00 0.00 0.00 0.00 0.00 0.00 0.00 0.00 0.00 0.00 0.00 0.00 0.00 0.00 0.00 0.00 0.00 0.00 0.00 0.00 0.00 0.00
0.08 0.08 0.07 0.08 0.05 0.03 0.01 0.01 0.00 0.01 0.02 0.00 0.00 0.00 0.00 0.00 0.00 0.00 0.00 0.00 0.00 0.00 0.00 0.00 0.00 0.00 0.00 0.00 0.00 0.00 0.00 0.00 0.01 0.01 0.00 0.00 0.00 0.00 0.00 0.00 0.00 0.00 0.01 0.00
0.15 0.17 0.16 0.21 0.19 0.13 0.08 0.04 0.02 0.03 0.03 0.00 0.00 0.00 0.00 0.00 0.00 0.00 0.00 0.00 0.00 0.00 0.00 0.00 0.00 0.00 0.00 0.00 0.00 0.00 0.00 0.00 0.02 0.02 0.00 0.00 0.00 0.00 0.00 0.00 0.02 0.03 0.01 0.00
0.33 0.31 0.28 0.31 0.28 0.28 0.21 0.13 0.09 0.11 0.10 0.01 0.00 0.01 0.01 0.01 0.02 0.01 0.00 0.00 0.00 0.00 0.00 0.00 0.00 0.00 0.00 0.00 0.00 0.00 0.00 0.00 0.01 0.00 0.00 0.00 0.00 0.00 0.00 0.00 0.04 0.02 0.01 0.00
0.61 0.57 0.53 0.53 0.50 0.58 0.52 0.39 0.24 0.27 0.27 0.13 0.02 0.07 0.08 0.11 0.08 0.03 0.00 0.00 0.00 0.00 0.00 0.00 0.00 0.01 0.01 0.00 0.00 0.00 0.00 0.00 0.00 0.00 0.01 0.00 0.00 0.00 0.00 0.00 0.05 0.01 0.00 0.00
0.49 0.59 0.60 0.59 0.67 0.67 0.61 0.67 0.52 0.70 0.66 0.31 0.13 0.20 0.22 0.15 0.10 0.05 0.00 0.00 0.00 0.00 0.00 0.02 0.02 0.01 0.00 0.00 0.00 0.00 0.00 0.01 0.01 0.01 0.04 0.00 0.00 0.00 0.00 0.02 0.03 0.00 0.00 0.00
0.73 0.84 0.81 0.81 0.84 0.77 0.67 0.84 0.72 0.80 0.88 0.63 0.28 0.18 0.16 0.13 0.08 0.07 0.03 0.01 0.00 0.00 0.02 0.02 0.00 0.00 0.00 0.00 0.00 0.00 0.01 0.03 0.04 0.04 0.07 0.02 0.00 0.00 0.02 0.02 0.00 0.00 0.00 0.00
0.54 0.54 0.54 0.57 0.65 0.62 0.48 0.75 0.82 0.87 0.94 0.81 0.36 0.18 0.08 0.04 0.02 0.01 0.01 0.02 0.02 0.02 0.01 0.02 0.02 0.00 0.00 0.00 0.00 0.00 0.00 0.00 0.04 0.08 0.02 0.00 0.00 0.01 0.01 0.00 0.00 0.00 0.00 0.00
0.39 0.40 0.40 0.38 0.38 0.31 0.21 0.30 0.52 0.61 0.56 0.34 0.15 0.04 0.01 0.00 0.00 0.00 0.02 0.02 0.01 0.01 0.00 0.03 0.02 0.01 0.00 0.00 0.00 0.00 0.00 0.00 0.01 0.00 0.00 0.00 0.00 0.00 0.01 0.00 0.00 0.00 0.00 0.00
0.42 0.42 0.39 0.35 0.33 0.31 0.23 0.23 0.23 0.17 0.14 0.11 0.04 0.00 0.00 0.00 0.00 0.00 0.00 0.00 0.01 0.00 0.00 0.04 0.03 0.01 0.00 0.00 0.00 0.00 0.01 0.00 0.00 0.00 0.00 0.00 0.00 0.00 0.00 0.00 0.00 0.00 0.00 0.00
0.25 0.27 0.29 0.30 0.31 0.22 0.13 0.13 0.13 0.07 0.05 0.06 0.03 0.02 0.01 0.01 0.01 0.00 0.00 0.00 0.00 0.00 0.00 0.01 0.01 0.00 0.00 0.00 0.00 0.00 0.00 0.00 0.00 0.00 0.00 0.00 0.00 0.00 0.00 0.00 0.00 0.00 0.00 0.00
0.20 0.23 0.25 0.22 0.18 0.07 0.07 0.10 0.06 0.02 0.01 0.03 0.01 0.00 0.00 0.00 0.00 0.00 0.00 0.00 0.00 0.00 0.00 0.00 0.00 0.00 0.00 0.01 0.00 0.00 0.00 0.00 0.00 0.00 0.00 0.00 0.00 0.00 0.00 0.00 0.00 0.00 0.00 0.00
0.26 0.26 0.21 0.15 0.09 0.02 0.01 0.01 0.00 0.00 0.00 0.00 0.00 0.00 0.00 0.00 0.00 0.00 0.00 0.00 0.00 0.00 0.01 0.01 0.00 0.00 0.01 0.03 0.01 0.00 0.00 0.00 0.00 0.00 0.00 0.00 0.00 0.00 0.00 0.00 0.00 0.00 0.00 0.00
0.30 0.26 0.20 0.14 0.06 0.01 0.00 0.00 0.00 0.00 0.00 0.00 0.00 0.00 0.00 0.00 0.00 0.00 0.00 0.00 0.00 0.01 0.01 0.00 0.00 0.00 0.02 0.03 0.01 0.00 0.00 0.00 0.00 0.00 0.00 0.00 0.00 0.00 0.00 0.00 0.00 0.00 0.00 0.00
0.16 0.10 0.04 0.03 0.01 0.00 0.00 0.00 0.00 0.01 0.01 0.00 0.00 0.00 0.00 0.00 0.00 0.00 0.00 0.00 0.02 0.03 0.06 0.00 0.01 0.03 0.06 0.04 0.02 0.00 0.00 0.00 0.00 0.00 0.00 0.00 0.00 0.00 0.00 0.00 0.00 0.01 0.00 0.00
0.03 0.01 0.02 0.08 0.03 0.00 0.00 0.00 0.00 0.00 0.01 0.01 0.00 0.00 0.00 0.00 0.00 0.00 0.01 0.02 0.04 0.05 0.03 0.04 0.05 0.07 0.05 0.01 0.00 0.00 0.00 0.00 0.00 0.02 0.03 0.03 0.03 0.00 0.00 0.00 0.00 0.01 0.02 0.02
0.02 0.04 0.12 0.06 0.00 0.00 0.00 0.00 0.00 0.00 0.01 0.00 0.00 0.00 0.00 0.00 0.00 0.01 0.00 0.01 0.02 0.03 0.03 0.09 0.09 0.14 0.04 0.00 0.00 0.00 0.00 0.00 0.00 0.01 0.01 0.02 0.08 0.09 0.05 0.02 0.00 0.01 0.02 0.03
0.01 0.02 0.03 0.00 0.00 0.00 0.01 0.01 0.00 0.00 0.01 0.05 0.06 0.02 0.00 0.00 0.01 0.02 0.01 0.01 0.02 0.01 0.06 0.16 0.14 0.09 0.03 0.00 0.00 0.00 0.00 0.00 0.00 0.00 0.02 0.01 0.01 0.03 0.07 0.03 0.03 0.03 0.03 0.04
0.02 0.04 0.03 0.02 0.01 0.01 0.01 0.00 0.00 0.04 0.03 0.03 0.00 0.00 0.00 0.00 0.01 0.03 0.02 0.03 0.01 0.01 0.04 0.12 0.11 0.05 0.01 0.00 0.00 0.00 0.00 0.00 0.00 0.00 0.01 0.02 0.02 0.01 0.05 0.10 0.04 0.07 0.10 0.11
0.10 0.06 0.03 0.01 0.00 0.00 0.00 0.01 0.01 0.02 0.00 0.00 0.00 0.00 0.00 0.00 0.01 0.01 0.03 0.01 0.03 0.09 0.16 0.13 0.08 0.04 0.00 0.00 0.00 0.01 0.00 0.00 0.01 0.02 0.02 0.06 0.07 0.06 0.07 0.16 0.19 0.20 0.18 0.16
0.10 0.04 0.02 0.00 0.00 0.01 0.02 0.01 0.00 0.00 0.00 0.00 0.00 0.00 0.01 0.01 0.01 0.01 0.04 0.07 0.17 0.12 0.08 0.09 0.05 0.02 0.01 0.01 0.01 0.02 0.02 0.02 0.03 0.04 0.07 0.09 0.08 0.11 0.15 0.22 0.22 0.19 0.19 0.16
0.04 0.02 0.00 0.01 0.00 0.03 0.02 0.00 0.00 0.00 0.00 0.00 0.00 0.00 0.01 0.01 0.02 0.05 0.07 0.08 0.06 0.06 0.07 0.05 0.02 0.01 0.02 0.03 0.03 0.05 0.05 0.05 0.05 0.07 0.09 0.08 0.12 0.24 0.32 0.25 0.21 0.20 0.19 0.16
0.03 0.02 0.00 0.00 0.00 0.00 0.00 0.00 0.01 0.00 0.00 0.00 0.01 0.01 0.00 0.02 0.05 0.05 0.04 0.05 0.05 0.06 0.04 0.02 0.02 0.03 0.03 0.04 0.04 0.04 0.04 0.04 0.06 0.07 0.09 0.16 0.18 0.15 0.14 0.19 0.27 0.24 0.23 0.23